Location: Waco, TX
(31.5480°N, 97.1670°W)
Time: 22:55:56
(UTC-05:00)

ISS - Pass Details

Date: 19 April 2018
Orbit: 403 x 406 km, 51.6° (Epoch: 23 April)

Event Time Altitude Azimuth Distance (km) Brightness Sun altitude
Rises 11:37:07 0° 270° (W) 2,310 -0.3 57.4°
Reaches altitude 10° 11:40:16 10° 304° (NW) 1,455 -1.2 58.0°
Maximum altitude 11:41:36 12° 328° (NNW) 1,346 -1.3 58.2°
Drops below altitude 10° 11:42:55 10° 352° (N) 1,458 -1.1 58.5°
Sets 11:46:06 0° 26° (NNE) 2,321 0.0 59.0°
